Regional Weather Roundup
Issued by NWS

Home | Current Version | Previous Version | Graphics & Text | Print | Product List | Glossary On
Versions: 1 2 3 4 5 6 7 8 9 10 11 12 13 14 15 16 17 18 19 20 21 22 23 24 25 26 27 28 29 30 31 32 33 34 35 36 37 38 39 40 41 42 43 44 45 46 47 48 49 50
000
ASUS43 KFSD 031510
RWRSD

WEATHER ROUNDUP FOR SOUTH DAKOTA
NATIONAL WEATHER SERVICE SIOUX FALLS SD
1000 AM CDT WED JUN 03 2015

NOTE: "FAIR" INDICATES FEW OR NO CLOUDS BELOW 12,000 FEET WITH NO
SIGNIFICANT WEATHER AND/OR OBSTRUCTIONS TO VISIBILITY.


SDZ001>005-009-010-012>017-031600-
NORTHWEST AND NORTH CENTRAL SOUTH DAKOTA

CITY           SKY/WX    TMP DP  RH WIND       PRES   REMARKS
BUFFALO          N/A     54  48  80 N9        29.97R
FAITH            N/A     54  49  83 N15       30.00R
MOBRIDGE       CLOUDY    57  52  83 N14       29.92R
$$

SDZ012>016-024>037-041>051-057-063-072>074-031600-
SOUTHWEST AND SOUTH CENTRAL SOUTH DAKOTA

CITY           SKY/WX    TMP DP  RH WIND       PRES   REMARKS
RAPID CTY ARPT CLOUDY    56  52  86 N16       30.03R
PIERRE         CLOUDY    61  56  83 NW16      29.93R
CUSTER         PTSUNNY   61  43  51 CALM      30.08S
ELLSWORTH AFB  CLOUDY    55  53  90 N15       30.03R
PHILIP         CLOUDY    59  54  83 N10       30.00R
PINE RIDGE     SUNNY     63  52  67 N6        30.02R
SPEARFISH      PTSUNNY   55  52  88 W5        30.06S
WINNER         FAIR      66  56  70 NW20      29.92R
$$

SDZ004>011-016>023-039-040-031600-
NORTHEAST SOUTH DAKOTA

CITY           SKY/WX    TMP DP  RH WIND       PRES   REMARKS
ABERDEEN       CLOUDY    66  60  81 NW14      29.84S
WATERTOWN      LGT RAIN  62  60  93 NW5       29.83R FOG
BROOKINGS      CLOUDY    64  59  82 N17       29.79F
SISSETON         N/A     67  63  87 NW17      29.79R
$$

SDZ017-020-022-023-036>040-048>070-031600-
SOUTHEAST SOUTH DAKOTA

CITY           SKY/WX    TMP DP  RH WIND       PRES   REMARKS
SIOUX FALLS    CLOUDY    66  64  93 SW5       29.82F
HURON          CLOUDY    65  60  84 NW16      29.82S
CHAMBERLAIN    SUNNY     65  58  76 NW12      29.89R
MITCHELL       CLOUDY    69  64  84 W10       29.84R
YANKTON        PTSUNNY   70  63  78 NW7       29.84R
$$

ABBREVIATIONS USED IN REMARKS
   TC - TEMPERATURE IN CELSIUS
  WCI - WIND CHILL INDEX
   HX - HEAT INDEX
  VSB - VISIBILITY




USA.gov is the U.S. government's official web portal to all federal, state and local government web resources and services.